Year,Month,Day,Hour,Minute,Value (Times are PST for temperature in C)
2010,07,14,00,00,11.80
2010,07,14,00,01,11.80
2010,07,14,00,02,11.80
2010,07,14,00,03,11.80
2010,07,14,00,04,11.80
2010,07,14,00,05,11.70
2010,07,14,00,06,11.70
2010,07,14,00,07,11.70
2010,07,14,00,08,11.60
2010,07,14,00,09,11.60
2010,07,14,00,10,11.60
2010,07,14,00,11,11.60
2010,07,14,00,12,11.60
2010,07,14,00,13,11.60
2010,07,14,00,14,11.60
2010,07,14,00,15,11.60
2010,07,14,00,16,11.60
2010,07,14,00,17,11.40
2010,07,14,00,18,11.40
2010,07,14,00,19,11.40
2010,07,14,00,20,11.40
2010,07,14,00,21,11.40
2010,07,14,00,22,11.40
2010,07,14,00,23,11.40
2010,07,14,00,24,11.40
2010,07,14,00,25,11.40
2010,07,14,00,26,11.40
2010,07,14,00,27,11.40
2010,07,14,00,28,11.40
2010,07,14,00,29,11.30
2010,07,14,00,30,11.30
2010,07,14,00,31,11.20
2010,07,14,00,32,11.20
2010,07,14,00,33,11.20
2010,07,14,00,34,11.10
2010,07,14,00,35,11.10
2010,07,14,00,36,11.10
2010,07,14,00,37,11.10
2010,07,14,00,38,11.10
2010,07,14,00,39,11.10
2010,07,14,00,40,11.10
2010,07,14,00,41,11.10
2010,07,14,00,42,11.10
2010,07,14,00,43,11.10
2010,07,14,00,44,11.10
2010,07,14,00,45,11.10
2010,07,14,00,46,11.10
2010,07,14,00,47,11.10
2010,07,14,00,48,11.10
2010,07,14,00,49,11.10
2010,07,14,00,50,11.10
2010,07,14,00,51,11.10
2010,07,14,00,52,11.10
2010,07,14,00,53,11.10
2010,07,14,00,54,11.10
2010,07,14,00,55,11.00
2010,07,14,00,56,10.90
2010,07,14,00,57,10.90
2010,07,14,00,58,10.90
2010,07,14,00,59,10.90
2010,07,14,01,00,10.90
2010,07,14,01,01,10.90
2010,07,14,01,02,10.80
2010,07,14,01,03,10.80
2010,07,14,01,04,10.80
2010,07,14,01,05,10.80
2010,07,14,01,06,10.80
2010,07,14,01,07,10.80
2010,07,14,01,08,10.80
2010,07,14,01,09,10.80
2010,07,14,01,10,10.80
2010,07,14,01,11,10.80
2010,07,14,01,12,10.80
2010,07,14,01,13,10.70
2010,07,14,01,14,10.70
2010,07,14,01,15,10.70
2010,07,14,01,16,10.70
2010,07,14,01,17,10.70
2010,07,14,01,18,10.70
2010,07,14,01,19,10.70
2010,07,14,01,20,10.70
2010,07,14,01,21,10.60
2010,07,14,01,22,10.60
2010,07,14,01,23,10.60
2010,07,14,01,24,10.60
2010,07,14,01,25,10.60
2010,07,14,01,26,10.60
2010,07,14,01,27,10.60
2010,07,14,01,28,10.50
2010,07,14,01,29,10.40
2010,07,14,01,30,10.40
2010,07,14,01,31,10.40
2010,07,14,01,32,10.40
2010,07,14,01,33,10.40
2010,07,14,01,34,10.40
2010,07,14,01,35,10.40
2010,07,14,01,36,10.40
2010,07,14,01,37,10.40
2010,07,14,01,38,10.40
2010,07,14,01,39,10.40
2010,07,14,01,40,10.40
2010,07,14,01,41,10.40
2010,07,14,01,42,10.30
2010,07,14,01,43,10.30
2010,07,14,01,44,10.30
2010,07,14,01,45,10.30
2010,07,14,01,46,10.30
2010,07,14,01,47,10.30
2010,07,14,01,48,10.30
2010,07,14,01,49,10.30
2010,07,14,01,50,10.30
2010,07,14,01,51,10.30
2010,07,14,01,52,10.30
2010,07,14,01,53,10.30
2010,07,14,01,54,10.20
2010,07,14,01,55,10.20
2010,07,14,01,56,10.20
2010,07,14,01,57,10.20
2010,07,14,01,58,10.20
2010,07,14,01,59,10.20
2010,07,14,02,00,10.20
2010,07,14,02,01,10.20
2010,07,14,02,02,10.20
2010,07,14,02,03,10.10
2010,07,14,02,04,10.10
2010,07,14,02,05,10.10
2010,07,14,02,06,10.10
2010,07,14,02,07,10.10
2010,07,14,02,08,10.10
2010,07,14,02,09,10.10
2010,07,14,02,10,10.10
2010,07,14,02,11,10.10
2010,07,14,02,12,10.10
2010,07,14,02,13,10.10
2010,07,14,02,14,10.10
2010,07,14,02,15,10.10
2010,07,14,02,16,10.10
2010,07,14,02,17,10.10
2010,07,14,02,18,10.10
2010,07,14,02,19,10.10
2010,07,14,02,20,10.10
2010,07,14,02,21,10.10
2010,07,14,02,22,10.10
2010,07,14,02,23,10.10
2010,07,14,02,24,10.10
2010,07,14,02,25,10.10
2010,07,14,02,26,10.10
2010,07,14,02,27,10.10
2010,07,14,02,28,10.10
2010,07,14,02,29,10.10
2010,07,14,02,30,10.10
2010,07,14,02,31,10.10
2010,07,14,02,32,10.10
2010,07,14,02,33,10.10
2010,07,14,02,34,10.10
2010,07,14,02,35,10.10
2010,07,14,02,36,10.10
2010,07,14,02,37,10.10
2010,07,14,02,38,10.10
2010,07,14,02,39,10.00
2010,07,14,02,40,9.90
2010,07,14,02,41,9.90
2010,07,14,02,42,9.90
2010,07,14,02,43,9.90
2010,07,14,02,44,9.90
2010,07,14,02,45,9.90
2010,07,14,02,46,9.90
2010,07,14,02,47,9.90
2010,07,14,02,48,9.90
2010,07,14,02,49,9.90
2010,07,14,02,50,9.90
2010,07,14,02,51,9.90
2010,07,14,02,52,9.90
2010,07,14,02,53,9.90
2010,07,14,02,54,9.90
2010,07,14,02,55,9.80
2010,07,14,02,56,9.80
2010,07,14,02,57,9.80
2010,07,14,02,58,9.80
2010,07,14,02,59,9.80
2010,07,14,03,00,9.80
2010,07,14,03,01,9.80
2010,07,14,03,02,9.80
2010,07,14,03,03,9.80
2010,07,14,03,04,9.80
2010,07,14,03,05,9.80
2010,07,14,03,06,9.80
2010,07,14,03,07,9.80
2010,07,14,03,08,9.80
2010,07,14,03,09,9.80
2010,07,14,03,10,9.80
2010,07,14,03,11,9.80
2010,07,14,03,12,9.80
2010,07,14,03,13,9.80
2010,07,14,03,14,9.80
2010,07,14,03,15,9.80
2010,07,14,03,16,9.80
2010,07,14,03,17,9.80
2010,07,14,03,18,9.80
2010,07,14,03,19,9.80
2010,07,14,03,20,9.80
2010,07,14,03,21,9.70
2010,07,14,03,22,9.70
2010,07,14,03,23,9.70
2010,07,14,03,24,9.70
2010,07,14,03,25,9.70
2010,07,14,03,26,9.70
2010,07,14,03,27,9.70
2010,07,14,03,28,9.70
2010,07,14,03,29,9.70
2010,07,14,03,30,9.70
2010,07,14,03,31,9.70
2010,07,14,03,32,9.70
2010,07,14,03,33,9.70
2010,07,14,03,34,9.70
2010,07,14,03,35,9.70
2010,07,14,03,36,9.70
2010,07,14,03,37,9.70
2010,07,14,03,38,9.70
2010,07,14,03,39,9.70
2010,07,14,03,40,9.70
2010,07,14,03,41,9.70
2010,07,14,03,42,9.70
2010,07,14,03,43,9.70
2010,07,14,03,44,9.60
2010,07,14,03,45,9.60
2010,07,14,03,46,9.60
2010,07,14,03,47,9.60
2010,07,14,03,48,9.60
2010,07,14,03,49,9.60
2010,07,14,03,50,9.50
2010,07,14,03,51,9.50
2010,07,14,03,52,9.50
2010,07,14,03,53,9.50
2010,07,14,03,54,9.50
2010,07,14,03,55,9.50
2010,07,14,03,56,9.50
2010,07,14,03,57,9.50
2010,07,14,03,58,9.50
2010,07,14,03,59,9.50
2010,07,14,04,00,9.50
2010,07,14,04,01,9.50
2010,07,14,04,02,9.50
2010,07,14,04,03,9.40
2010,07,14,04,04,9.40
2010,07,14,04,05,9.40
2010,07,14,04,06,9.40
2010,07,14,04,07,9.40
2010,07,14,04,08,9.40
2010,07,14,04,09,9.40
2010,07,14,04,10,9.40
2010,07,14,04,11,9.40
2010,07,14,04,12,9.40
2010,07,14,04,13,9.40
2010,07,14,04,14,9.40
2010,07,14,04,15,9.40
2010,07,14,04,16,9.40
2010,07,14,04,17,9.40
2010,07,14,04,18,9.40
2010,07,14,04,19,9.30
2010,07,14,04,20,9.30
2010,07,14,04,21,9.30
2010,07,14,04,22,9.30
2010,07,14,04,23,9.30
2010,07,14,04,24,9.40
2010,07,14,04,25,9.40
2010,07,14,04,26,9.30
2010,07,14,04,27,9.30
2010,07,14,04,28,9.30
2010,07,14,04,29,9.30
2010,07,14,04,30,9.30
2010,07,14,04,31,9.30
2010,07,14,04,32,9.30
2010,07,14,04,33,9.30
2010,07,14,04,34,9.30
2010,07,14,04,35,9.30
2010,07,14,04,36,9.30
2010,07,14,04,37,9.30
2010,07,14,04,38,9.30
2010,07,14,04,39,9.30
2010,07,14,04,40,9.30
2010,07,14,04,41,9.30
2010,07,14,04,42,9.30
2010,07,14,04,43,9.30
2010,07,14,04,44,9.30
2010,07,14,04,45,9.30
2010,07,14,04,46,9.30
2010,07,14,04,47,9.30
2010,07,14,04,48,9.30
2010,07,14,04,49,9.30
2010,07,14,04,50,9.30
2010,07,14,04,51,9.30
2010,07,14,04,52,9.30
2010,07,14,04,53,9.30
2010,07,14,04,54,9.30
2010,07,14,04,55,9.30
2010,07,14,04,56,9.30
2010,07,14,04,57,9.20
2010,07,14,04,58,9.20
2010,07,14,04,59,9.20
2010,07,14,05,00,9.20
2010,07,14,05,01,9.20
2010,07,14,05,02,9.20
2010,07,14,05,03,9.20
2010,07,14,05,04,9.20
2010,07,14,05,05,9.20
2010,07,14,05,06,9.20
2010,07,14,05,07,9.20
2010,07,14,05,08,9.20
2010,07,14,05,09,9.20
2010,07,14,05,10,9.20
2010,07,14,05,11,9.20
2010,07,14,05,12,9.20
2010,07,14,05,13,9.20
2010,07,14,05,14,9.20
2010,07,14,05,15,9.20
2010,07,14,05,16,9.20
2010,07,14,05,17,9.20
2010,07,14,05,18,9.20
2010,07,14,05,19,9.20
2010,07,14,05,20,9.20
2010,07,14,05,21,9.20
2010,07,14,05,22,9.20
2010,07,14,05,23,9.20
2010,07,14,05,24,9.20
2010,07,14,05,25,9.20
2010,07,14,05,26,9.20
2010,07,14,05,27,9.10
2010,07,14,05,28,9.10
2010,07,14,05,29,9.10
2010,07,14,05,30,9.10
2010,07,14,05,31,9.10
2010,07,14,05,32,9.00
2010,07,14,05,33,9.00
2010,07,14,05,34,9.00
2010,07,14,05,35,9.00
2010,07,14,05,36,9.00
2010,07,14,05,37,9.00
2010,07,14,05,38,9.00
2010,07,14,05,39,9.00
2010,07,14,05,40,9.00
2010,07,14,05,41,9.00
2010,07,14,05,42,9.00
2010,07,14,05,43,9.00
2010,07,14,05,44,9.00
2010,07,14,05,45,9.00
2010,07,14,05,46,9.00
2010,07,14,05,47,9.00
2010,07,14,05,48,9.00
2010,07,14,05,49,9.00
2010,07,14,05,50,9.00
2010,07,14,05,51,9.00
2010,07,14,05,52,9.00
2010,07,14,05,53,9.00
2010,07,14,05,54,9.00
2010,07,14,05,55,9.00
2010,07,14,05,56,9.00
2010,07,14,05,57,9.00
2010,07,14,05,58,9.00
2010,07,14,05,59,9.00
2010,07,14,06,00,9.00
2010,07,14,06,01,9.00
2010,07,14,06,02,9.00
2010,07,14,06,03,9.00
2010,07,14,06,04,9.00
2010,07,14,06,05,9.00
2010,07,14,06,06,9.00
2010,07,14,06,07,9.00
2010,07,14,06,08,9.00
2010,07,14,06,09,9.00
2010,07,14,06,10,9.00
2010,07,14,06,11,9.00
2010,07,14,06,12,9.00
2010,07,14,06,13,9.00
2010,07,14,06,14,9.00
2010,07,14,06,15,9.00
2010,07,14,06,16,9.00
2010,07,14,06,17,9.00
2010,07,14,06,18,9.00
2010,07,14,06,19,9.00
2010,07,14,06,20,9.00
2010,07,14,06,21,9.00
2010,07,14,06,22,9.00
2010,07,14,06,23,9.00
2010,07,14,06,24,9.10
2010,07,14,06,25,9.10
2010,07,14,06,26,9.10
2010,07,14,06,27,9.10
2010,07,14,06,28,9.10
2010,07,14,06,29,9.10
2010,07,14,06,30,9.10
2010,07,14,06,31,9.10
2010,07,14,06,32,9.10
2010,07,14,06,33,9.10
2010,07,14,06,34,9.10
2010,07,14,06,35,9.10
2010,07,14,06,36,9.10
2010,07,14,06,37,9.10
2010,07,14,06,38,9.10
2010,07,14,06,39,9.10
2010,07,14,06,40,9.10
2010,07,14,06,41,9.10
2010,07,14,06,42,9.10
2010,07,14,06,43,9.20
2010,07,14,06,44,9.20
2010,07,14,06,45,9.20
2010,07,14,06,46,9.20
2010,07,14,06,47,9.20
2010,07,14,06,48,9.20
2010,07,14,06,49,9.20
2010,07,14,06,50,9.20
2010,07,14,06,51,9.20
2010,07,14,06,52,9.20
2010,07,14,06,53,9.30
2010,07,14,06,54,9.30
2010,07,14,06,55,9.30
2010,07,14,06,56,9.30
2010,07,14,06,57,9.30
2010,07,14,06,58,9.40
2010,07,14,06,59,9.40
2010,07,14,07,00,9.40
2010,07,14,07,01,9.40
2010,07,14,07,02,9.40
2010,07,14,07,03,9.50
2010,07,14,07,04,9.50
2010,07,14,07,05,9.50
2010,07,14,07,06,9.50
2010,07,14,07,07,9.60
2010,07,14,07,08,9.60
2010,07,14,07,09,9.60
2010,07,14,07,10,9.70
2010,07,14,07,11,9.70
2010,07,14,07,12,9.70
2010,07,14,07,13,9.70
2010,07,14,07,14,9.70
2010,07,14,07,15,9.70
2010,07,14,07,16,9.80
2010,07,14,07,17,9.80
2010,07,14,07,18,9.80
2010,07,14,07,19,9.90
2010,07,14,07,20,9.90
2010,07,14,07,21,9.90
2010,07,14,07,22,9.90
2010,07,14,07,23,10.00
2010,07,14,07,24,10.10
2010,07,14,07,25,10.10
2010,07,14,07,26,10.10
2010,07,14,07,27,10.20
2010,07,14,07,28,10.20
2010,07,14,07,29,10.20
2010,07,14,07,30,10.30
2010,07,14,07,31,10.30
2010,07,14,07,32,10.40
2010,07,14,07,33,10.40
2010,07,14,07,34,10.40
2010,07,14,07,35,10.50
2010,07,14,07,36,10.60
2010,07,14,07,37,10.60
2010,07,14,07,38,10.70
2010,07,14,07,39,10.70
2010,07,14,07,40,10.80
2010,07,14,07,41,10.80
2010,07,14,07,42,10.90
2010,07,14,07,43,10.90
2010,07,14,07,44,11.00
2010,07,14,07,45,11.10
2010,07,14,07,46,11.10
2010,07,14,07,47,11.10
2010,07,14,07,48,11.20
2010,07,14,07,49,11.30
2010,07,14,07,50,11.30
2010,07,14,07,51,11.40
2010,07,14,07,52,11.40
2010,07,14,07,53,11.50
2010,07,14,07,54,11.60
2010,07,14,07,55,11.60
2010,07,14,07,56,11.70
2010,07,14,07,57,11.80
2010,07,14,07,58,11.80
2010,07,14,07,59,11.90
2010,07,14,08,00,12.00
2010,07,14,08,01,12.10
2010,07,14,08,02,12.10
2010,07,14,08,03,12.20
2010,07,14,08,04,12.30
2010,07,14,08,05,12.30
2010,07,14,08,06,12.40
2010,07,14,08,07,12.50
2010,07,14,08,08,12.50
2010,07,14,08,09,12.60
2010,07,14,08,10,12.70
2010,07,14,08,11,12.80
2010,07,14,08,12,12.80
2010,07,14,08,13,12.90
2010,07,14,08,14,13.00
2010,07,14,08,15,13.00
2010,07,14,08,16,13.10
2010,07,14,08,17,13.20
2010,07,14,08,18,13.20
2010,07,14,08,19,13.30
2010,07,14,08,20,13.40
2010,07,14,08,21,13.50
2010,07,14,08,22,13.60
2010,07,14,08,23,13.70
2010,07,14,08,24,13.80
2010,07,14,08,25,13.90
2010,07,14,08,26,14.00
2010,07,14,08,27,14.10
2010,07,14,08,28,14.20
2010,07,14,08,29,14.30
2010,07,14,08,30,14.40
2010,07,14,08,31,14.50
2010,07,14,08,32,14.60
2010,07,14,08,33,14.70
2010,07,14,08,34,14.70
2010,07,14,08,35,14.80
2010,07,14,08,36,14.90
2010,07,14,08,37,15.00
2010,07,14,08,38,15.00
2010,07,14,08,39,15.10
2010,07,14,08,40,15.20
2010,07,14,08,41,15.30
2010,07,14,08,42,15.30
2010,07,14,08,43,15.40
2010,07,14,08,44,15.40
2010,07,14,08,45,15.50
2010,07,14,08,46,15.60
2010,07,14,08,47,15.70
2010,07,14,08,48,15.80
2010,07,14,08,49,15.80
2010,07,14,08,50,15.80
2010,07,14,08,51,15.90
2010,07,14,08,52,15.90
2010,07,14,08,53,16.00
2010,07,14,08,54,16.10
2010,07,14,08,55,16.10
2010,07,14,08,56,16.10
2010,07,14,08,57,16.10
2010,07,14,08,58,16.10
2010,07,14,08,59,16.10
2010,07,14,09,00,16.20
2010,07,14,09,01,16.20
2010,07,14,09,02,16.20
2010,07,14,09,03,16.30
2010,07,14,09,04,16.30
2010,07,14,09,05,16.40
2010,07,14,09,06,16.40
2010,07,14,09,07,16.60
2010,07,14,09,08,16.60
2010,07,14,09,09,16.60
2010,07,14,09,10,16.70
2010,07,14,09,11,16.70
2010,07,14,09,12,16.70
2010,07,14,09,13,16.70
2010,07,14,09,14,16.80
2010,07,14,09,15,16.80
2010,07,14,09,16,16.90
2010,07,14,09,17,16.90
2010,07,14,09,18,16.90
2010,07,14,09,19,17.00
2010,07,14,09,20,17.00
2010,07,14,09,21,17.00
2010,07,14,09,22,17.10
2010,07,14,09,23,17.10
2010,07,14,09,24,17.10
2010,07,14,09,25,17.20
2010,07,14,09,26,17.20
2010,07,14,09,27,17.20
2010,07,14,09,28,17.30
2010,07,14,09,29,17.30
2010,07,14,09,30,17.30
2010,07,14,09,31,17.30
2010,07,14,09,32,17.30
2010,07,14,09,33,17.30
2010,07,14,09,34,17.30
2010,07,14,09,35,17.30
2010,07,14,09,36,17.40
2010,07,14,09,37,17.40
2010,07,14,09,38,17.40
2010,07,14,09,39,17.40
2010,07,14,09,40,17.40
2010,07,14,09,41,17.50
2010,07,14,09,42,17.50
2010,07,14,09,43,17.50
2010,07,14,09,44,17.50
2010,07,14,09,45,17.50
2010,07,14,09,46,17.50
2010,07,14,09,47,17.60
2010,07,14,09,48,17.60
2010,07,14,09,49,17.60
2010,07,14,09,50,17.70
2010,07,14,09,51,17.70
2010,07,14,09,52,17.70
2010,07,14,09,53,17.80
2010,07,14,09,54,17.80
2010,07,14,09,55,17.90
2010,07,14,09,56,17.90
2010,07,14,09,57,17.90
2010,07,14,09,58,17.90
2010,07,14,09,59,17.90
2010,07,14,10,00,17.90
2010,07,14,10,01,17.90
2010,07,14,10,02,17.90
2010,07,14,10,03,17.90
2010,07,14,10,04,17.90
2010,07,14,10,05,18.00
2010,07,14,10,06,18.10
2010,07,14,10,07,18.10
2010,07,14,10,08,18.10
2010,07,14,10,09,18.10
2010,07,14,10,10,18.20
2010,07,14,10,11,18.20
2010,07,14,10,12,18.20
2010,07,14,10,13,18.20
2010,07,14,10,14,18.20
2010,07,14,10,15,18.30
2010,07,14,10,16,18.30
2010,07,14,10,17,18.30
2010,07,14,10,18,18.30
2010,07,14,10,19,18.30
2010,07,14,10,20,18.30
2010,07,14,10,21,18.40
2010,07,14,10,22,18.40
2010,07,14,10,23,18.40
2010,07,14,10,24,18.50
2010,07,14,10,25,18.50
2010,07,14,10,26,18.50
2010,07,14,10,27,18.60
2010,07,14,10,28,18.50
2010,07,14,10,29,18.50
2010,07,14,10,30,18.50
2010,07,14,10,31,18.50
2010,07,14,10,32,18.50
2010,07,14,10,33,18.50
2010,07,14,10,34,18.50
2010,07,14,10,35,18.50
2010,07,14,10,36,18.50
2010,07,14,10,37,18.50
2010,07,14,10,38,18.50
2010,07,14,10,39,18.50
2010,07,14,10,40,18.50
2010,07,14,10,41,18.40
2010,07,14,10,42,18.40
2010,07,14,10,43,18.40
2010,07,14,10,44,18.30
2010,07,14,10,45,18.30
2010,07,14,10,46,18.30
2010,07,14,10,47,18.30
2010,07,14,10,48,18.30
2010,07,14,10,49,18.30
2010,07,14,10,50,18.30
2010,07,14,10,51,18.30
2010,07,14,10,52,18.30
2010,07,14,10,53,18.40
2010,07,14,10,54,18.40
2010,07,14,10,55,18.40
2010,07,14,10,56,18.50
2010,07,14,10,57,18.50
2010,07,14,10,58,18.50
2010,07,14,10,59,18.60
2010,07,14,11,00,18.60
2010,07,14,11,01,18.60
2010,07,14,11,02,18.60
2010,07,14,11,03,18.60
2010,07,14,11,04,18.60
2010,07,14,11,05,18.60
2010,07,14,11,06,18.60
2010,07,14,11,07,18.60
2010,07,14,11,08,18.60
2010,07,14,11,09,18.60
2010,07,14,11,10,18.60
2010,07,14,11,11,18.60
2010,07,14,11,12,18.60
2010,07,14,11,13,18.60
2010,07,14,11,14,18.60
2010,07,14,11,15,18.60
2010,07,14,11,16,18.60
2010,07,14,11,17,18.60
2010,07,14,11,18,18.60
2010,07,14,11,19,18.60
2010,07,14,11,20,18.70
2010,07,14,11,21,18.70
2010,07,14,11,22,18.70
2010,07,14,11,23,18.70
2010,07,14,11,24,18.70
2010,07,14,11,25,18.80
2010,07,14,11,26,18.80
2010,07,14,11,27,18.80
2010,07,14,11,28,18.90
2010,07,14,11,29,18.90
2010,07,14,11,30,18.90
2010,07,14,11,31,18.90
2010,07,14,11,32,19.00
2010,07,14,11,33,19.10
2010,07,14,11,34,19.10
2010,07,14,11,35,19.10
2010,07,14,11,36,19.10
2010,07,14,11,37,19.10
2010,07,14,11,38,19.10
2010,07,14,11,39,19.10
2010,07,14,11,40,19.10
2010,07,14,11,41,19.10
2010,07,14,11,42,19.20
2010,07,14,11,43,19.20
2010,07,14,11,44,19.20
2010,07,14,11,45,19.20
2010,07,14,11,46,19.20
2010,07,14,11,47,19.20
2010,07,14,11,48,19.20
2010,07,14,11,49,19.30
2010,07,14,11,50,19.30
2010,07,14,11,51,19.30
2010,07,14,11,52,19.40
2010,07,14,11,53,19.40
2010,07,14,11,54,19.40
2010,07,14,11,55,19.50
2010,07,14,11,56,19.50
2010,07,14,11,57,19.50
2010,07,14,11,58,19.60
2010,07,14,11,59,19.60
2010,07,14,12,00,19.60
2010,07,14,12,01,19.70
2010,07,14,12,02,19.70
2010,07,14,12,03,19.70
2010,07,14,12,04,19.70
2010,07,14,12,05,19.80
2010,07,14,12,06,19.80
2010,07,14,12,07,19.80
2010,07,14,12,08,19.80
2010,07,14,12,09,19.90
2010,07,14,12,10,19.90
2010,07,14,12,11,19.90
2010,07,14,12,12,19.90
2010,07,14,12,13,19.90
2010,07,14,12,14,19.90
2010,07,14,12,15,19.90
2010,07,14,12,16,19.90
2010,07,14,12,17,19.90
2010,07,14,12,18,19.90
2010,07,14,12,19,19.90
2010,07,14,12,20,19.90
2010,07,14,12,21,19.90
2010,07,14,12,22,19.90
2010,07,14,12,23,20.00
2010,07,14,12,24,20.10
2010,07,14,12,25,20.20
2010,07,14,12,26,20.20
2010,07,14,12,27,20.20
2010,07,14,12,28,20.20
2010,07,14,12,29,20.10
2010,07,14,12,30,20.10
2010,07,14,12,31,20.10
2010,07,14,12,32,20.10
2010,07,14,12,33,20.10
2010,07,14,12,34,20.10
2010,07,14,12,35,19.90
2010,07,14,12,36,19.90
2010,07,14,12,37,19.90
2010,07,14,12,38,19.90
2010,07,14,12,39,19.90
2010,07,14,12,40,19.90
2010,07,14,12,41,19.90
2010,07,14,12,42,19.90
2010,07,14,12,43,19.90
2010,07,14,12,44,19.90
2010,07,14,12,45,20.10
2010,07,14,12,46,20.10
2010,07,14,12,47,20.20
2010,07,14,12,48,20.20
2010,07,14,12,49,20.20
2010,07,14,12,50,20.20
2010,07,14,12,51,20.30
2010,07,14,12,52,20.30
2010,07,14,12,53,20.40
2010,07,14,12,54,20.40
2010,07,14,12,55,20.50
2010,07,14,12,56,20.50
2010,07,14,12,57,20.60
2010,07,14,12,58,20.60
2010,07,14,12,59,20.60
2010,07,14,13,00,20.60
2010,07,14,13,01,20.60
2010,07,14,13,02,20.60
2010,07,14,13,03,20.60
2010,07,14,13,04,20.60
2010,07,14,13,05,20.60
2010,07,14,13,06,20.60
2010,07,14,13,07,20.70
2010,07,14,13,08,20.80
2010,07,14,13,09,20.80
2010,07,14,13,10,20.90
2010,07,14,13,11,20.90
2010,07,14,13,12,21.00
2010,07,14,13,13,21.00
2010,07,14,13,14,21.10
2010,07,14,13,15,21.20
2010,07,14,13,16,21.30
2010,07,14,13,17,21.30
2010,07,14,13,18,21.30
2010,07,14,13,19,21.30
2010,07,14,13,20,21.30
2010,07,14,13,21,21.30
2010,07,14,13,22,21.30
2010,07,14,13,23,21.40
2010,07,14,13,24,21.50
2010,07,14,13,25,21.60
2010,07,14,13,26,21.60
2010,07,14,13,27,21.60
2010,07,14,13,28,21.70
2010,07,14,13,29,21.80
2010,07,14,13,30,21.90
2010,07,14,13,31,21.90
2010,07,14,13,32,21.90
2010,07,14,13,33,21.90
2010,07,14,13,34,21.80
2010,07,14,13,35,21.80
2010,07,14,13,36,21.70
2010,07,14,13,37,21.60
2010,07,14,13,38,21.60
2010,07,14,13,39,21.60
2010,07,14,13,40,21.50
2010,07,14,13,41,21.40
2010,07,14,13,42,21.40
2010,07,14,13,43,21.40
2010,07,14,13,44,21.40
2010,07,14,13,45,21.40
2010,07,14,13,46,21.40
2010,07,14,13,47,21.40
2010,07,14,13,48,21.40
2010,07,14,13,49,21.40
2010,07,14,13,50,21.60
2010,07,14,13,51,21.60
2010,07,14,13,52,21.60
2010,07,14,13,53,21.60
2010,07,14,13,54,21.70
2010,07,14,13,55,21.80
2010,07,14,13,56,21.90
2010,07,14,13,57,22.00
2010,07,14,13,58,22.00
2010,07,14,13,59,21.90
2010,07,14,14,00,21.90
2010,07,14,14,01,21.90
2010,07,14,14,02,21.80
2010,07,14,14,03,21.80
2010,07,14,14,04,21.70
2010,07,14,14,05,21.60
2010,07,14,14,06,21.60
2010,07,14,14,07,21.60
2010,07,14,14,08,21.60
2010,07,14,14,09,21.60
2010,07,14,14,10,21.60
2010,07,14,14,11,21.60
2010,07,14,14,12,21.60
2010,07,14,14,13,21.60
2010,07,14,14,14,21.60
2010,07,14,14,15,21.70
2010,07,14,14,16,21.70
2010,07,14,14,17,21.70
2010,07,14,14,18,21.80
2010,07,14,14,19,21.90
2010,07,14,14,20,21.90
2010,07,14,14,21,21.90
2010,07,14,14,22,22.00
2010,07,14,14,23,22.00
2010,07,14,14,24,22.00
2010,07,14,14,25,22.00
2010,07,14,14,26,21.90
2010,07,14,14,27,21.90
2010,07,14,14,28,21.90
2010,07,14,14,29,21.80
2010,07,14,14,30,21.80
2010,07,14,14,31,21.80
2010,07,14,14,32,21.80
2010,07,14,14,33,21.80
2010,07,14,14,34,21.80
2010,07,14,14,35,21.80
2010,07,14,14,36,21.80
2010,07,14,14,37,21.90
2010,07,14,14,38,21.90
2010,07,14,14,39,21.90
2010,07,14,14,40,22.00
2010,07,14,14,41,22.00
2010,07,14,14,42,21.90
2010,07,14,14,43,21.90
2010,07,14,14,44,22.00
2010,07,14,14,45,22.00
2010,07,14,14,46,22.00
2010,07,14,14,47,22.00
2010,07,14,14,48,22.00
2010,07,14,14,49,22.10
2010,07,14,14,50,22.10
2010,07,14,14,51,22.20
2010,07,14,14,52,22.20
2010,07,14,14,53,22.20
2010,07,14,14,54,22.30
2010,07,14,14,55,22.30
2010,07,14,14,56,22.30
2010,07,14,14,57,22.30
2010,07,14,14,58,22.30
2010,07,14,14,59,22.30
2010,07,14,15,00,22.30
2010,07,14,15,01,22.20
2010,07,14,15,02,22.10
2010,07,14,15,03,22.10
2010,07,14,15,04,22.10
2010,07,14,15,05,22.10
2010,07,14,15,06,22.10
2010,07,14,15,07,22.10
2010,07,14,15,08,22.10
2010,07,14,15,09,22.20
2010,07,14,15,10,22.20
2010,07,14,15,11,22.20
2010,07,14,15,12,22.30
2010,07,14,15,13,22.20
2010,07,14,15,14,22.20
2010,07,14,15,15,22.20
2010,07,14,15,16,22.10
2010,07,14,15,17,22.10
2010,07,14,15,18,22.10
2010,07,14,15,19,22.00
2010,07,14,15,20,22.00
2010,07,14,15,21,22.00
2010,07,14,15,22,22.00
2010,07,14,15,23,22.00
2010,07,14,15,24,21.90
2010,07,14,15,25,21.90
2010,07,14,15,26,21.90
2010,07,14,15,27,21.90
2010,07,14,15,28,21.90
2010,07,14,15,29,21.90
2010,07,14,15,30,21.90
2010,07,14,15,31,21.90
2010,07,14,15,32,21.90
2010,07,14,15,33,21.90
2010,07,14,15,34,21.90
2010,07,14,15,35,21.90
2010,07,14,15,36,21.90
2010,07,14,15,37,21.90
2010,07,14,15,38,21.90
2010,07,14,15,39,22.00
2010,07,14,15,40,22.00
2010,07,14,15,41,22.10
2010,07,14,15,42,22.10
2010,07,14,15,43,22.10
2010,07,14,15,44,22.10
2010,07,14,15,45,22.10
2010,07,14,15,46,22.20
2010,07,14,15,47,22.20
2010,07,14,15,48,22.30
2010,07,14,15,49,22.30
2010,07,14,15,50,22.30
2010,07,14,15,51,22.30
2010,07,14,15,52,22.30
2010,07,14,15,53,22.30
2010,07,14,15,54,22.30
2010,07,14,15,55,22.20
2010,07,14,15,56,22.20
2010,07,14,15,57,22.20
2010,07,14,15,58,22.10
2010,07,14,15,59,22.00
2010,07,14,16,00,22.00
2010,07,14,16,01,22.00
2010,07,14,16,02,21.90
2010,07,14,16,03,21.90
2010,07,14,16,04,21.90
2010,07,14,16,05,21.90
2010,07,14,16,06,21.90
2010,07,14,16,07,21.90
2010,07,14,16,08,21.90
2010,07,14,16,09,21.90
2010,07,14,16,10,21.90
2010,07,14,16,11,21.90
2010,07,14,16,12,21.90
2010,07,14,16,13,21.90
2010,07,14,16,14,21.90
2010,07,14,16,15,21.80
2010,07,14,16,16,21.80
2010,07,14,16,17,21.80
2010,07,14,16,18,21.80
2010,07,14,16,19,21.70
2010,07,14,16,20,21.70
2010,07,14,16,21,21.70
2010,07,14,16,22,21.60
2010,07,14,16,23,21.60
2010,07,14,16,24,21.60
2010,07,14,16,25,21.40
2010,07,14,16,26,21.40
2010,07,14,16,27,21.40
2010,07,14,16,28,21.30
2010,07,14,16,29,21.30
2010,07,14,16,30,21.30
2010,07,14,16,31,21.30
2010,07,14,16,32,21.30
2010,07,14,16,33,21.30
2010,07,14,16,34,21.30
2010,07,14,16,35,21.30
2010,07,14,16,36,21.30
2010,07,14,16,37,21.30
2010,07,14,16,38,21.30
2010,07,14,16,39,21.30
2010,07,14,16,40,21.30
2010,07,14,16,41,21.30
2010,07,14,16,42,21.30
2010,07,14,16,43,21.30
2010,07,14,16,44,21.30
2010,07,14,16,45,21.30
2010,07,14,16,46,21.30
2010,07,14,16,47,21.30
2010,07,14,16,48,21.30
2010,07,14,16,49,21.30
2010,07,14,16,50,21.30
2010,07,14,16,51,21.30
2010,07,14,16,52,21.30
2010,07,14,16,53,21.30
2010,07,14,16,54,21.30
2010,07,14,16,55,21.30
2010,07,14,16,56,21.30
2010,07,14,16,57,21.30
2010,07,14,16,58,21.20
2010,07,14,16,59,21.20
2010,07,14,17,00,21.20
2010,07,14,17,01,21.20
2010,07,14,17,02,21.20
2010,07,14,17,03,21.20
2010,07,14,17,04,21.20
2010,07,14,17,05,21.20
2010,07,14,17,06,21.20
2010,07,14,17,07,21.10
2010,07,14,17,08,21.10
2010,07,14,17,09,21.10
2010,07,14,17,10,21.10
2010,07,14,17,11,21.10
2010,07,14,17,12,21.20
2010,07,14,17,13,21.20
2010,07,14,17,14,21.20
2010,07,14,17,15,21.20
2010,07,14,17,16,21.20
2010,07,14,17,17,21.20
2010,07,14,17,18,21.20
2010,07,14,17,19,21.20
2010,07,14,17,20,21.20
2010,07,14,17,21,21.20
2010,07,14,17,22,21.20
2010,07,14,17,23,21.20
2010,07,14,17,24,21.20
2010,07,14,17,25,21.20
2010,07,14,17,26,21.20
2010,07,14,17,27,21.20
2010,07,14,17,28,21.20
2010,07,14,17,29,21.10
2010,07,14,17,30,21.10
2010,07,14,17,31,21.10